Home > Time Zones > World Clock > Weather > Spain > Palma > Past weeks

Flag for Spain Weather past 2 weeks in Palma, Majorca, Spain

Now
93 °F

Passing clouds.


Feels Like: 95 °F
Forecast: 77 / 91 °F
Wind: 10 mph from South

Location: Palma De Mallorca / Son San Juan

Current Time: Jul 31, 2015 at 3:59:00 PM

Latest Report: Jul 31, 2015 at 3:30 PM


Visibility: N/A

Pressure: 29.83 "Hg

Humidity: 39%

Dew point: 64 °F

Location of PalmaLocation

Historic Weather in Palma — Graph

°F

Palma temperature yesterday

Maximum temperature yesterday: 91 °F (at 2:30 PM)
Minimum temperature yesterday: 75 °F (at 5:00 AM)
Average temperature yesterday: 82 °F

Past Weeks' High & Low Weather Summary

 TemperatureHumidityPressure
High93 °F (Jul 18, 2:00 PM)100% (Jul 20, 6:30 AM)30.07 "Hg (Jul 20, 6:30 AM)
Low68 °F (Jul 31, 5:30 AM)32% (Jul 18, 5:00 PM)29.80 "Hg (Jul 24, 6:30 PM)
Average82 °F71%29.94 "Hg
* Reported Jul 16 2:00 PM — Jul 31 2:30 PM, Palma, Weather by CustomWeather, © 2015

Note: Actual official high and low records may vary slightly from our data, if they occured in-between our weather recording intervals... More about our weather records

Advertising

Palma weather history for previous 24 hours

 ConditionsComfort  
Time TempWeatherWind HumidityBarometerVisibility
2:30 PM
Fri, Jul 31
91 °FPassing clouds.8 mph41%29.83 "HgN/A
2:00 PM91 °FPassing clouds.8 mph41%29.83 "HgN/A
1:30 PM90 °FPassing clouds.9 mph43%29.86 "HgN/A
1:00 PM90 °FPassing clouds.7 mph43%29.86 "HgN/A
12:30 PM90 °FPassing clouds.7 mph43%29.86 "HgN/A
12:00 PM88 °FPassing clouds.12 mph46%29.86 "HgN/A
11:30 AM86 °FPassing clouds.10 mph49%29.86 "HgN/A
11:00 AM84 °FPassing clouds.10 mph51%29.86 "HgN/A
10:30 AM82 °FPassing clouds.10 mph55%29.86 "HgN/A
10:00 AM81 °FPassing clouds.12 mph58%29.86 "HgN/A
9:30 AM79 °FPassing clouds.9 mph65%29.89 "HgN/A
9:00 AM79 °FPassing clouds.8 mph65%29.89 "HgN/A
8:30 AM75 °FSunny.6 mph69%29.86 "Hg10 mi
8:00 AM73 °FPassing clouds.5 mph78%29.86 "HgN/A
7:30 AM72 °FClear.1 mph78%29.86 "Hg10 mi
7:00 AM72 °FClear.No wind78%29.86 "Hg10 mi
6:30 AM70 °FClear.1 mph83%29.86 "Hg10 mi
6:00 AM72 °FPassing clouds.2 mph78%29.86 "HgN/A
5:30 AM68 °FPassing clouds.2 mph83%29.86 "HgN/A
5:00 AM72 °FPassing clouds.1 mph78%29.86 "HgN/A
4:30 AM70 °FPassing clouds.1 mph83%29.89 "HgN/A
4:00 AM70 °FPassing clouds.3 mph83%29.89 "HgN/A
3:30 AM70 °FPassing clouds.No wind83%29.89 "HgN/A
3:00 AM73 °FPassing clouds.No wind74%29.89 "HgN/A
2:30 AM73 °FPassing clouds.2 mph74%29.89 "HgN/A
2:00 AM73 °FPassing clouds.3 mph74%29.92 "HgN/A
1:30 AM75 °FPassing clouds.3 mph69%29.92 "HgN/A
1:00 AM75 °FPassing clouds.7 mph69%29.92 "HgN/A
12:30 AM75 °FPassing clouds.12 mph74%29.92 "HgN/A
12:00 AM75 °FPassing clouds.10 mph74%29.92 "HgN/A
11:30 PM
Thu, Jul 30
77 °FPassing clouds.12 mph69%29.92 "HgN/A
11:00 PM77 °FPassing clouds.15 mph69%29.92 "HgN/A
10:30 PM77 °FPassing clouds.20 mph74%29.89 "HgN/A
10:00 PM77 °FPassing clouds.18 mph74%29.89 "HgN/A
9:30 PM79 °FPassing clouds.15 mph70%29.86 "HgN/A
9:00 PM81 °FPassing clouds.12 mph66%29.86 "HgN/A
8:30 PM82 °FScattered clouds.9 mph62%29.86 "HgN/A
8:00 PM82 °FScattered clouds.9 mph62%29.86 "HgN/A
7:30 PM84 °FScattered clouds.10 mph58%29.86 "Hg6 mi
7:00 PM84 °FPartly sunny.9 mph62%29.83 "HgN/A
6:30 PM84 °FScattered clouds.13 mph62%29.83 "HgN/A
6:00 PM86 °FPassing clouds.16 mph55%29.83 "HgN/A
5:30 PM84 °FPassing clouds.22 mph58%29.80 "HgN/A
5:00 PM84 °FPassing clouds.21 mph62%29.83 "HgN/A
4:30 PM86 °FPassing clouds.17 mph59%29.83 "HgN/A
4:04 PM88 °FPassing clouds.15 mph52%29.86 "HgN/A
4:00 PM88 °FScattered clouds.16 mph55%29.86 "HgN/A
3:30 PM90 °FScattered clouds.17 mph49%29.86 "HgN/A
3:00 PM90 °FScattered clouds.14 mph52%29.86 "HgN/A
Weather by CustomWeather, © 2015

See weather overviewHow to use our weather pages